Miscellaneous Local Product
Issued by NWS Hastings, NE

Home | Current Version | Previous Version | Text Only | Print | Product List | Glossary Off
Versions: 1 2 3 4 5 6 7 8 9 10 11 12 13 14 15 16 17 18 19 20 21 22 23 24 25 26 27 28 29 30 31 32 33 34 35 36 37 38 39 40 41 42 43 44 45 46 47 48 49 50

000
AXUS43 KGID 220602
MISGRI

GID CWA HOURLY WEATHER ROUNDUP
NATIONAL WEATHER SERVICE HASTINGS NE
100 AM CDT FRI SEP 22 2017

NOTE: "FAIR" INDICATES FEW OR NO CLOUDS BELOW 12,000 FEET WITH NO
SIGNIFICANT WEATHER AND/OR OBSTRUCTIONS TO VISIBILITY.

...SOUTH CENTRAL NEBRASKA...

CITY           SKY/WX    TMP DP  RH WIND       PRES   REMARKS
GRAND ISLAND   CLEAR     81  70  69 S22G30    29.74S
HASTINGS       CLEAR     82  67  60 S17G29    29.76R
KEARNEY        CLEAR     81  67  62 S24       29.72S
ORD            CLEAR     78  65  63 SE16G22   29.68R
YORK           PTCLDY    81  72  74 S16G23    29.78R
AURORA         CLEAR     80  70  71 S14       29.77R
LEXINGTON      CLEAR     81  65  58 S20       29.69S
HOLDREGE       CLEAR     80  64  58 S20G26    29.72S
HEBRON         MOCLDY    82  71  70 S16G23    29.79S

...NEBRASKA PANHANDLE...

CITY           SKY/WX    TMP DP  RH WIND       PRES   REMARKS
CHADRON        CLEAR     59  38  45 NE15      29.68S
ALLIANCE       CLEAR     56  44  64 NW7       29.63R
SCOTTSBLUFF    CLEAR     62  40  44 NE14      29.61F
SIDNEY         CLEAR     58  32  37 S10       29.64F

...WESTERN AND NORTH CENTRAL NEBRASKA...

CITY           SKY/WX    TMP DP  RH WIND       PRES   REMARKS
VALENTINE      CLEAR     73  52  47 SE18      29.60F
AINSWORTH      CLEAR     72  63  73 SE15      29.64S
ONEILL         CLEAR     80  69  70 S18G25    29.69S
BROKEN BOW     CLEAR     75  58  55 S16       29.69S
IMPERIAL       CLEAR     72  38  29 S12       29.65R
NORTH PLATTE   CLEAR     77  51  40 SE15G23   29.65R
MCCOOK         LGT RAIN  81  64  56 S24G32    29.66S

...EASTERN NEBRASKA...

CITY           SKY/WX    TMP DP  RH WIND       PRES   REMARKS
NORFOLK        CLEAR     80  72  76 S21G28    29.74R
SO SIOUX CITY  CLEAR     78  74  87 SE9       29.76R
TEKAMAH        CLEAR     80  72  76 S12       29.78R
COLUMBUS       CLEAR     80  72  76 S16G22    29.76R
ALBION         CLEAR     80  71  74 S18G25    29.73S
OMAHA EPPLEY   PTCLDY    81  72  74 S13       29.81R
OFFUTT AFB     CLEAR     79  72  79 SE14      29.81R
MILLARD        CLEAR     83  74  74 S9G17     29.81R
LINCOLN        CLEAR     81  71  71 S17       29.78S
NEBRASKA CITY  CLEAR     79  75  86 S13G18    29.84S
BEATRICE       CLEAR     82  71  71 S16G22    29.81R
FALLS CITY     CLEAR     80  71  74 S12       29.85R

...NORTHERN KANSAS...

CITY           SKY/WX    TMP DP  RH WIND       PRES   REMARKS
GOODLAND       CLEAR     68  43  40 S14       29.71S
HILL CITY      CLEAR     82  68  62 S26G39    29.73S
NORTON         CLEAR     81  61  50 S21G29    29.71R
PHILLIPSBURG   CLEAR     82  66  57 S16G28    29.73R
SMITH CENTER   CLEAR     81  66  61 S22G29    29.75R
HAYS           CLEAR     81  69  67 S24G32    29.76R
RUSSELL        CLEAR     82  68  62 S24G37    29.77R
CONCORDIA      CLOUDY    80  72  76 S16G24    29.80R
SALINA         CLEAR     84  70  62 S21G29    29.81R
TOPEKA         CLEAR     80  73  79 S15       29.87R



USA.gov is the U.S. government's official web portal to all federal, state and local government web resources and services.